GW2364 Weather Reports


time (UTC)temp
C
wind
direction
speed
KPH
gust
KPH
rain 1hr
cm
rain 24hr
cm
rain mn
cm
humidity
%
barometer
mb
20260901200007 36 68 4.8 12.9 0.00 0.00 0.00 44 1011.7
20260901194502 35 98 1.6 17.7 0.00 0.00 0.00 46 1012.0
20260901193007 36 47 1.6 14.5 0.00 0.00 0.00 45 1012.1
20260901191504 36 126 8.0 16.1 0.00 0.00 0.00 43 1012.3
20260901190009 36 195 1.6 11.3 0.00 0.00 0.00 46 1012.6
20260901184504 35 47 3.2 9.7 0.00 0.00 0.00 47 1012.7
20260901183003 36 59 3.2 11.3 0.00 0.00 0.00 46 1013.0
20260901181503 35 45 4.8 12.9 0.00 0.00 0.00 47 1013.3
20260901180006 35 111 3.2 14.5 0.00 0.00 0.00 47 1013.5
20260901174504 35 100 6.4 14.5 0.00 0.00 0.00 49 1013.7
20260901173003 33 127 3.2 8.0 0.00 0.00 0.00 52 1014.0
20260901171503 33 55 6.4 11.3 0.00 0.00 0.00 53 1014.2
20260901170004 33 116 3.2 14.5 0.00 0.00 0.00 54 1014.3
20260901164503 33 42 8.0 17.7 0.00 0.00 0.00 55 1014.4
20260901163003 32 31 3.2 9.7 0.00 0.00 0.00 59 1014.4
20260901161504 32 216 1.6 11.3 0.00 0.00 0.00 59 1014.7
20260901160010 31 269 1.6 6.4 0.00 0.00 0.00 64 1014.7
20260901154505 30 230 1.6 12.9 0.00 0.00 0.00 65 1014.7
20260901153004 30 84 0.0 11.3 0.00 0.00 0.00 68 1014.7
20260901151503 29 235 1.6 8.0 0.00 0.00 0.00 70 1014.6
20260901150007 29 247 1.6 6.4 0.00 0.00 0.00 73 1014.6
20260901144502 28 216 3.2 9.7 0.00 0.00 0.00 76 1014.7
20260901143004 28 240 0.0 4.8 0.00 0.00 0.00 78 1014.9
20260901141506 27 240 0.0 9.7 0.00 0.00 0.00 81 1014.8
20260901140004 27 225 0.0 6.4 0.00 0.00 0.00 83 1015.0
20260901134502 26 237 0.0 4.8 0.00 0.00 0.00 86 1014.7
20260901133004 25 237 0.0 3.2 0.00 0.00 0.00 86 1014.6
20260901131502 25 237 0.0 1.6 0.00 0.00 0.00 88 1014.5
20260901130006 24 237 0.0 1.6 0.00 0.00 0.00 90 1014.5
20260901124503 24 237 0.0 1.6 0.00 0.00 0.00 91 1014.3
20260901123005 23 237 0.0 0.0 0.00 0.00 0.00 90 1014.1
20260901121503 23 236 0.0 3.2 0.00 0.00 0.00 90 1013.9
20260901120006 23 236 0.0 1.6 0.00 0.00 0.00 90 1013.9
20260901114503 23 237 0.0 0.0 0.00 0.00 0.00 90 1013.9
20260901113003 24 236 0.0 3.2 0.00 0.00 0.00 90 1013.8
20260901111503 24 236 0.0 4.8 0.00 0.00 0.00 89 1013.7
20260901110005 24 236 1.6 4.8 0.00 0.00 0.00 89 1013.7
20260901104502 24 236 0.0 4.8 0.00 0.00 0.00 88 1013.6
20260901103002 25 228 1.6 6.4 0.00 0.00 0.00 87 1013.6
20260901101503 25 231 0.0 4.8 0.00 0.00 0.00 86 1013.5
20260901100004 25 230 1.6 6.4 0.00 0.00 0.00 86 1013.6
20260901094502 25 233 1.6 4.8 0.00 0.00 0.00 86 1013.7
20260901093002 25 240 0.0 1.6 0.00 0.00 0.00 85 1014.0
20260901091503 25 240 0.0 3.2 0.00 0.00 0.00 85 1013.9
20260901090007 25 240 0.0 3.2 0.00 0.00 0.00 84 1013.8
20260901084504 25 240 0.0 4.8 0.00 0.00 0.00 83 1013.7
20260901083002 26 76 0.0 1.6 0.00 0.00 0.00 82 1013.6
20260901081503 26 76 0.0 3.2 0.00 0.00 0.00 81 1013.7
20260901080004 26 76 0.0 1.6 0.00 0.00 0.00 80 1013.8
20260901074501 26 76 0.0 1.6 0.00 0.00 0.00 79 1013.7
20260901073001 26 76 0.0 3.2 0.00 0.00 0.00 78 1013.8
20260901071502 26 76 0.0 3.2 0.00 0.00 0.00 77 1013.8
20260901070004 27 76 0.0 3.2 0.00 0.00 0.00 76 1013.8
20260901064504 27 132 1.6 6.4 0.00 0.00 0.00 75 1013.7
20260901063008 27 109 0.0 9.7 0.00 0.00 0.00 74 1013.6
20260901061502 27 40 0.0 3.2 0.00 0.00 0.00 72 1013.5
20260901060005 27 93 1.6 9.7 0.00 0.00 0.00 71 1013.5
20260901054504 28 113 1.6 11.3 0.00 0.00 0.00 71 1013.3
20260901053003 28 92 1.6 8.0 0.00 0.00 0.00 70 1013.3
20260901051512 28 109 1.6 8.0 0.00 0.00 0.00 70 1013.1
20260901050009 28 100 0.0 6.4 0.00 0.00 0.00 68 1013.0
20260901044506 29 40 1.6 11.3 0.00 0.00 0.00 67 1013.0
20260901043005 29 60 3.2 12.9 0.00 0.00 0.00 66 1013.0
20260901041504 29 124 1.6 14.5 0.00 0.00 0.00 65 1013.0
20260901040006 30 77 1.6 9.7 0.00 0.00 0.00 63 1012.9
20260901034504 30 355 1.6 14.5 0.00 0.00 0.00 61 1012.9
20260901033005 30 145 4.8 16.1 0.00 0.00 0.00 59 1012.8
20260901031504 30 118 3.2 16.1 0.00 0.00 0.00 56 1012.7
20260901030006 31 90 3.2 12.9 0.00 0.00 0.00 53 1012.5
20260901024504 31 40 4.8 17.7 0.00 0.00 0.00 51 1012.3
20260901023004 31 93 1.6 6.4 0.00 0.00 0.00 48 1011.9
20260901021504 31 80 3.2 9.7 0.00 0.00 0.00 48 1011.8
20260901020007 31 62 1.6 6.4 0.00 0.00 0.00 48 1011.6
20260901014511 31 72 1.6 3.2 0.00 0.00 0.00 47 1011.3
20260901013004 32 72 1.6 3.2 0.00 0.00 0.00 46 1011.3
20260901011504 32 72 1.6 6.4 0.00 0.00 0.00 44 1011.1
20260901010006 32 90 0.0 4.8 0.00 0.00 0.00 43 1011.0
20260901004504 33 88 1.6 11.3 0.00 0.00 0.00 43 1010.9
20260901003005 33 78 1.6 6.4 0.00 0.00 0.00 42 1010.8
20260901001503 34 74 3.2 9.7 0.00 0.00 0.00 41 1010.8
20260901000006 35 69 4.8 11.3 0.00 0.00 0.00 41 1010.7
20260831234507 35 155 3.2 12.9 0.00 0.00 0.00 40 1010.8
20260831233004 35 106 1.6 12.9 0.00 0.00 0.00 41 1010.6
20260831231504 36 105 6.4 12.9 0.00 0.00 0.00 39 1010.7
20260831230005 36 114 3.2 8.0 0.00 0.00 0.00 38 1010.8
20260831224503 36 76 1.6 12.9 0.00 0.00 0.00 40 1010.9
20260831223004 36 61 1.6 6.4 0.00 0.00 0.00 41 1010.9
20260831221504 36 130 4.8 11.3 0.00 0.00 0.00 41 1011.1
20260831220006 36 60 4.8 14.5 0.00 0.00 0.00 42 1011.0
20260831214508 36 77 4.8 9.7 0.00 0.00 0.00 42 1011.3
20260831213005 36 138 3.2 11.3 0.00 0.00 0.00 40 1011.7
20260831211504 37 257 3.2 14.5 0.00 0.00 0.00 39 1011.7
20260831210005 37 101 6.4 17.7 0.00 0.00 0.00 38 1012.0
20260831204503 37 102 4.8 12.9 0.00 0.00 0.00 40 1012.2
20260831203002 36 47 1.6 16.1 0.00 0.00 0.00 39 1012.6
20260831201503 36 46 4.8 14.5 0.00 0.00 0.00 42 1012.8